Weather History for Huntington, WV

Change the Weather History Date:

Thursday, October 27, 2011

  Actual Average Record
Temperature  
Mean Temperature 49 °F 53 °F  
Max Temperature 59 °F 65 °F 86 °F (1940)
Min Temperature 39 °F 42 °F 16 °F (1962)
Degree Days  
Heating Degree Days 16 12  
Month to date heating degree days 226 230  
Since 1 July heating degree days 281 288  
Cooling Degree Days 0 0  
Month to date cooling degree days 2 16  
Year to date cooling degree days 1239 1127  
Moisture  
Dew Point 50 °F    
Average Humidity 85    
Maximum Humidity 100    
Minimum Humidity 70    
Precipitation  
Precipitation 0.69 in 0.09 in 1.34 in (2006)
Month to date precipitation 4.29 2.41  
Year to date precipitation 52.51 35.44  
Snow  
Snow 0.00 in - - ()
Month to date snowfall 0.0  
Since 1 September snowfall 0.0  
Snow Depth 0.00 in    
Sea Level Pressure  
Sea Level Pressure 29.86 in    
Wind  
Wind Speed 7 mph (WNW)    
Max Wind Speed 15 mph    
Max Gust Speed 22 mph    
Visibility 6 miles    
Events Fog , Rain    
T = Trace of Precipitation, MM = Missing Value Source: NWS Daily Summary

Daily Weather History Graph

Daily Weather History Graph

Search for Another Location

Airport:

Trip Planner

Search our weather history database for the weather conditions in past years. The results will help you decide how hot, cold, wet, or windy it might be!

Date:

Astronomy

Oct. 27, 2011 Rise Set
Actual Time 7:50 AM EDT 6:36 PM EDT
Civil Twilight 7:23 AM EDT 7:03 PM EDT
Nautical Twilight 6:52 AM EDT 7:34 PM EDT
Astronomical Twilight 6:22 AM EDT 8:05 PM EDT
Moon 8:50 AM EDT (10/27) 7:06 PM EDT (10/27)
Length of Visible Light 11h 39m
Length of Day
10h 45m
New Moon, 1% of the Moon is Illuminated
Oct 27
New Moon
Nov 2
First Quarter
Nov 10
Full
Nov 18
Last Quarter
Nov 25
New

Hourly Weather History & Observations

Time (EDT) Temp. Windchill Dew Point Humidity Pressure Visibility Wind Dir Wind Speed Gust Speed Precip Events Conditions
12:51 AM 59.0 °F - 57.0 °F 93% 29.81 in 6.0 mi NNW 5.8 mph - 0.00 in   Overcast
1:51 AM 57.9 °F - 57.0 °F 97% 29.80 in 6.0 mi SSW 3.5 mph - 0.00 in Rain Light Rain
2:51 AM 57.9 °F - 57.0 °F 97% 29.78 in 7.0 mi SSW 3.5 mph - 0.00 in Rain Light Rain
3:51 AM 57.9 °F - 55.9 °F 93% 29.78 in 3.0 mi WSW 5.8 mph - 0.04 in Rain Rain
3:59 AM 57.2 °F - 55.4 °F 94% 29.77 in 2.0 mi WSW 6.9 mph 16.1 mph 0.06 in Rain Heavy Rain
4:07 AM 57.2 °F - 55.4 °F 94% 29.77 in 10.0 mi West 5.8 mph - 0.07 in   Overcast
4:51 AM 57.0 °F - 55.9 °F 96% 29.76 in 4.0 mi Calm Calm - 0.10 in Rain Light Rain
5:06 AM 57.2 °F - 55.4 °F 94% 29.77 in 1.8 mi WSW 5.8 mph - 0.06 in Rain Heavy Rain
5:38 AM 57.2 °F - 55.4 °F 94% 29.77 in 2.5 mi SW 8.1 mph - 0.31 in Rain Rain
5:47 AM 57.2 °F - 55.4 °F 94% 29.76 in 4.0 mi SW 6.9 mph - 0.35 in Rain Light Rain
5:51 AM 57.9 °F - 55.9 °F 93% 29.75 in 6.0 mi SW 6.9 mph - 0.35 in Rain Light Rain
6:51 AM 57.9 °F - 55.9 °F 93% 29.74 in 8.0 mi SW 6.9 mph - 0.00 in Rain Light Rain
7:43 AM 57.2 °F - 53.6 °F 88% 29.76 in 7.0 mi SSW 9.2 mph - 0.04 in Rain Light Rain
7:51 AM 57.0 °F - 55.0 °F 93% 29.75 in 7.0 mi SSW 8.1 mph - 0.05 in Rain Light Rain
8:51 AM 55.9 °F - 54.0 °F 93% 29.76 in 9.0 mi SW 9.2 mph - 0.03 in Rain Light Rain
9:07 AM 55.4 °F - 53.6 °F 94% 29.77 in 2.0 mi SW 9.2 mph - 0.00 in Rain Light Rain
9:51 AM 55.9 °F - 55.0 °F 97% 29.77 in 2.0 mi WSW 9.2 mph - 0.01 in Rain Light Rain
10:34 AM 53.6 °F - 53.6 °F 100% 29.79 in 2.5 mi NNW 8.1 mph - 0.02 in Rain Light Rain
10:51 AM 54.0 °F - 53.1 °F 97% 29.78 in 2.0 mi NNW 5.8 mph - 0.03 in Rain Light Rain
10:56 AM 53.6 °F - 53.6 °F 100% 29.79 in 0.5 mi NNW 5.8 mph - N/A Fog , Rain Light Rain
11:46 AM 53.6 °F - 53.6 °F 100% 29.79 in 2.0 mi Calm Calm - 0.02 in   Overcast
11:51 AM 54.0 °F - 53.1 °F 97% 29.79 in 2.0 mi West 3.5 mph - 0.02 in   Overcast
11:58 AM 53.6 °F - 53.6 °F 100% 29.80 in 2.0 mi West 4.6 mph - N/A   Overcast
12:09 PM 53.6 °F - 51.8 °F 94% 29.81 in 2.0 mi WNW 4.6 mph - N/A   Overcast
12:27 PM 53.6 °F - 51.8 °F 94% 29.81 in 1.0 mi NW 6.9 mph - 0.01 in Rain Light Rain
12:51 PM 52.0 °F - 52.0 °F 100% 29.82 in 1.0 mi NW 8.1 mph - 0.03 in Rain Light Rain
1:47 PM 51.8 °F - 50.0 °F 94% 29.83 in 10.0 mi NW 6.9 mph - 0.03 in   Overcast
1:51 PM 51.1 °F - 50.0 °F 96% 29.83 in 10.0 mi WNW 10.4 mph - 0.03 in   Overcast
2:51 PM 50.0 °F - 46.9 °F 89% 29.86 in 10.0 mi WNW 6.9 mph - 0.00 in   Overcast
3:51 PM 48.9 °F - 45.0 °F 86% 29.90 in 9.0 mi NNW 11.5 mph 20.7 mph 0.00 in Rain Light Rain
4:51 PM 48.0 °F - 42.1 °F 80% 29.95 in 10.0 mi NW 10.4 mph 18.4 mph 0.00 in   Overcast
5:34 PM 48.2 °F - 42.8 °F 82% 29.97 in 10.0 mi NNW 6.9 mph - N/A   Overcast
5:51 PM 46.9 °F - 41.0 °F 80% 29.98 in 10.0 mi NNW 8.1 mph 16.1 mph N/A   Overcast
6:51 PM 46.9 °F - 39.9 °F 77% 30.03 in 10.0 mi NNW 9.2 mph - N/A   Overcast
7:30 PM 46.4 °F 42.4 °F 39.2 °F 76% 30.05 in 10.0 mi NNW 8.1 mph - N/A   Overcast
7:51 PM 46.0 °F 41.9 °F 39.0 °F 76% 30.06 in 10.0 mi NNW 8.1 mph - N/A   Overcast
8:15 PM 46.4 °F 42.9 °F 39.2 °F 76% 30.07 in 10.0 mi North 6.9 mph - N/A   Overcast
8:51 PM 45.0 °F 39.7 °F 37.9 °F 76% 30.09 in 10.0 mi NNE 10.4 mph - N/A   Overcast
9:51 PM 44.1 °F 40.8 °F 36.0 °F 73% 30.11 in 10.0 mi NE 5.8 mph - N/A   Overcast
10:51 PM 42.1 °F 39.2 °F 35.1 °F 76% 30.12 in 10.0 mi NNE 4.6 mph - N/A   Partly Cloudy
11:51 PM 41.0 °F - 35.1 °F 79% 30.13 in 10.0 mi Calm Calm - N/A   Clear